| time (UTC) | temp F | wind direction | speed knots | gust knots | rain 1hr in | rain 24hr in | rain mn in | humidity % | barometer mb |
| 20260507234503 | 46 | 0 | 0.0 | 0.0 | 0.00 | 0.00 | 0.00 | 88 | 1019.8 |
| 20260507233603 | 46 | 0 | 0.0 | 0.0 | 0.00 | 0.00 | 0.00 | 88 | 1019.7 |
| 20260507232916 | 47 | 0 | 0.0 | 0.0 | 0.00 | 0.00 | 0.00 | 86 | 1019.6 |
| 20260507232018 | 48 | 133 | 0.0 | 0.9 | 0.00 | 0.00 | 0.00 | 86 | 1019.6 |
| 20260507230903 | 49 | 141 | 0.0 | 0.9 | 0.00 | 0.00 | 0.00 | 86 | 1019.6 |
| 20260507230004 | 49 | 147 | 0.0 | 1.7 | 0.00 | 0.00 | 0.00 | 85 | 1019.7 |
| 20260507225403 | 49 | 157 | 0.0 | 1.7 | 0.00 | 0.00 | 0.00 | 84 | 1019.7 |
| 20260507224505 | 49 | 132 | 0.0 | 0.9 | 0.00 | 0.00 | 0.00 | 84 | 1019.9 |
| 20260507223603 | 49 | 136 | 0.0 | 1.7 | 0.00 | 0.00 | 0.00 | 84 | 1019.8 |
| 20260507222703 | 50 | 141 | 0.0 | 0.9 | 0.00 | 0.00 | 0.00 | 83 | 1019.9 |
| 20260507221803 | 50 | 120 | 0.0 | 0.9 | 0.00 | 0.00 | 0.00 | 82 | 1019.9 |
| 20260507220903 | 50 | 137 | 0.0 | 1.7 | 0.00 | 0.00 | 0.00 | 82 | 1019.8 |
| 20260507220218 | 50 | 145 | 0.0 | 0.9 | 0.00 | 0.00 | 0.00 | 82 | 1019.9 |
| 20260507215403 | 51 | 147 | 0.9 | 1.7 | 0.00 | 0.00 | 0.00 | 81 | 1019.9 |
| 20260507214504 | 51 | 154 | 0.9 | 1.7 | 0.00 | 0.00 | 0.00 | 80 | 1020.0 |
| 20260507213603 | 51 | 154 | 0.9 | 2.6 | 0.00 | 0.00 | 0.00 | 80 | 1019.8 |
| 20260507212703 | 51 | 158 | 0.0 | 1.7 | 0.00 | 0.00 | 0.00 | 80 | 1020.0 |
| 20260507211803 | 51 | 163 | 0.0 | 1.7 | 0.00 | 0.00 | 0.00 | 81 | 1019.9 |
| 20260507210903 | 51 | 143 | 0.0 | 0.9 | 0.00 | 0.00 | 0.00 | 81 | 1019.9 |
| 20260507210218 | 51 | 137 | 0.0 | 0.9 | 0.00 | 0.00 | 0.00 | 82 | 1019.7 |
| 20260507205403 | 50 | 0 | 0.0 | 0.0 | 0.00 | 0.00 | 0.00 | 83 | 1019.7 |
| 20260507204506 | 51 | 126 | 0.0 | 0.9 | 0.00 | 0.00 | 0.00 | 82 | 1019.8 |
| 20260507203604 | 51 | 0 | 0.0 | 0.0 | 0.00 | 0.00 | 0.00 | 81 | 1019.6 |
| 20260507202703 | 51 | 0 | 0.0 | 0.0 | 0.00 | 0.00 | 0.00 | 80 | 1019.5 |
| 20260507201803 | 51 | 122 | 0.0 | 0.9 | 0.00 | 0.00 | 0.00 | 79 | 1019.3 |
| 20260507200903 | 51 | 122 | 0.0 | 0.9 | 0.00 | 0.00 | 0.00 | 79 | 1019.4 |
| 20260507200003 | 51 | 0 | 0.0 | 0.0 | 0.00 | 0.00 | 0.00 | 80 | 1019.0 |
| 20260507195404 | 52 | 0 | 0.0 | 0.0 | 0.00 | 0.00 | 0.00 | 78 | 1019.0 |
| 20260507194503 | 52 | 0 | 0.0 | 0.0 | 0.00 | 0.00 | 0.00 | 77 | 1019.0 |
| 20260507193603 | 53 | 157 | 0.0 | 0.9 | 0.00 | 0.00 | 0.00 | 76 | 1018.9 |
| 20260507192703 | 53 | 136 | 0.9 | 2.6 | 0.00 | 0.00 | 0.00 | 75 | 1018.8 |
| 20260507191803 | 53 | 146 | 0.9 | 2.6 | 0.00 | 0.00 | 0.00 | 74 | 1018.8 |
| 20260507191118 | 53 | 151 | 0.9 | 2.6 | 0.00 | 0.00 | 0.00 | 73 | 1018.7 |
| 20260507190004 | 53 | 132 | 0.0 | 1.7 | 0.00 | 0.00 | 0.00 | 72 | 1018.5 |
| 20260507185403 | 53 | 128 | 0.0 | 1.7 | 0.00 | 0.00 | 0.00 | 71 | 1018.5 |
| 20260507184503 | 54 | 140 | 0.0 | 0.9 | 0.00 | 0.00 | 0.00 | 71 | 1018.5 |
| 20260507183603 | 54 | 141 | 0.0 | 0.9 | 0.00 | 0.00 | 0.00 | 69 | 1018.5 |
| 20260507182916 | 55 | 142 | 0.9 | 3.5 | 0.00 | 0.00 | 0.00 | 67 | 1018.5 |
| 20260507181803 | 55 | 151 | 1.7 | 3.5 | 0.00 | 0.00 | 0.00 | 65 | 1018.5 |
| 20260507180903 | 55 | 145 | 1.7 | 5.2 | 0.00 | 0.00 | 0.00 | 65 | 1018.3 |
| 20260507180217 | 55 | 119 | 1.7 | 5.2 | 0.00 | 0.00 | 0.00 | 64 | 1018.4 |
| 20260507175403 | 55 | 110 | 1.7 | 5.2 | 0.00 | 0.00 | 0.00 | 63 | 1018.3 |
| 20260507174717 | 56 | 123 | 1.7 | 5.2 | 0.00 | 0.00 | 0.00 | 63 | 1017.9 |
| 20260507173605 | 56 | 148 | 0.9 | 2.6 | 0.00 | 0.00 | 0.00 | 61 | 1018.0 |
| 20260507172703 | 56 | 146 | 0.9 | 2.6 | 0.00 | 0.00 | 0.00 | 61 | 1018.1 |
| 20260507171803 | 57 | 158 | 0.9 | 5.2 | 0.00 | 0.00 | 0.00 | 59 | 1018.3 |
| 20260507170903 | 57 | 144 | 0.9 | 2.6 | 0.00 | 0.00 | 0.00 | 58 | 1018.1 |
| 20260507170003 | 57 | 126 | 1.7 | 3.5 | 0.00 | 0.00 | 0.00 | 58 | 1018.1 |
| 20260507165404 | 58 | 140 | 0.9 | 2.6 | 0.00 | 0.00 | 0.00 | 56 | 1018.2 |
| 20260507164717 | 58 | 169 | 0.9 | 3.5 | 0.00 | 0.00 | 0.00 | 54 | 1018.3 |
| 20260507163603 | 58 | 119 | 0.9 | 3.5 | 0.00 | 0.00 | 0.00 | 54 | 1018.1 |
| 20260507162703 | 58 | 143 | 1.7 | 5.2 | 0.00 | 0.00 | 0.00 | 56 | 1018.2 |
| 20260507161803 | 59 | 169 | 0.9 | 2.6 | 0.00 | 0.00 | 0.00 | 52 | 1018.3 |
| 20260507160903 | 59 | 165 | 0.9 | 2.6 | 0.00 | 0.00 | 0.00 | 52 | 1018.3 |
| 20260507160003 | 58 | 141 | 0.9 | 3.5 | 0.00 | 0.00 | 0.00 | 54 | 1018.3 |
| 20260507155403 | 58 | 150 | 1.7 | 3.5 | 0.00 | 0.00 | 0.00 | 52 | 1018.3 |
| 20260507154504 | 60 | 158 | 1.7 | 6.1 | 0.00 | 0.00 | 0.00 | 50 | 1018.2 |
| 20260507153603 | 61 | 162 | 0.9 | 1.7 | 0.00 | 0.00 | 0.00 | 48 | 1018.3 |
| 20260507152704 | 59 | 149 | 1.7 | 3.5 | 0.00 | 0.00 | 0.00 | 51 | 1018.3 |
| 20260507151803 | 60 | 155 | 1.7 | 2.6 | 0.00 | 0.00 | 0.00 | 51 | 1018.5 |
| 20260507150903 | 59 | 164 | 1.7 | 2.6 | 0.00 | 0.00 | 0.00 | 50 | 1018.5 |
| 20260507150003 | 59 | 154 | 0.9 | 2.6 | 0.00 | 0.00 | 0.00 | 51 | 1018.5 |
| 20260507145403 | 58 | 148 | 0.9 | 2.6 | 0.00 | 0.00 | 0.00 | 51 | 1018.4 |
| 20260507144503 | 58 | 146 | 0.9 | 3.5 | 0.00 | 0.00 | 0.00 | 52 | 1018.5 |
| 20260507143818 | 59 | 152 | 0.9 | 3.5 | 0.00 | 0.00 | 0.00 | 51 | 1018.5 |
| 20260507142703 | 58 | 321 | 0.9 | 2.6 | 0.00 | 0.00 | 0.00 | 48 | 1018.4 |
| 20260507141803 | 60 | 116 | 0.0 | 3.5 | 0.00 | 0.00 | 0.00 | 46 | 1018.6 |
| 20260507140903 | 60 | 147 | 0.9 | 3.5 | 0.00 | 0.00 | 0.00 | 46 | 1018.7 |
| 20260507140003 | 60 | 147 | 0.9 | 2.6 | 0.00 | 0.00 | 0.00 | 48 | 1018.8 |
| 20260507135403 | 60 | 186 | 0.9 | 1.7 | 0.00 | 0.00 | 0.00 | 46 | 1018.6 |
| 20260507134503 | 60 | 163 | 0.9 | 1.7 | 0.00 | 0.00 | 0.00 | 45 | 1018.8 |
| 20260507133817 | 60 | 190 | 0.0 | 1.7 | 0.00 | 0.00 | 0.00 | 43 | 1018.8 |
| 20260507132703 | 62 | 198 | 0.9 | 1.7 | 0.00 | 0.00 | 0.00 | 44 | 1018.7 |
| 20260507131803 | 59 | 157 | 0.9 | 2.6 | 0.00 | 0.00 | 0.00 | 46 | 1019.0 |
| 20260507130903 | 58 | 158 | 1.7 | 3.5 | 0.00 | 0.00 | 0.00 | 48 | 1019.0 |
| 20260507130003 | 57 | 153 | 0.9 | 1.7 | 0.00 | 0.00 | 0.00 | 53 | 1018.9 |
| 20260507125616 | 56 | 151 | 0.9 | 2.6 | 0.00 | 0.00 | 0.00 | 52 | 1019.0 |
| 20260507124503 | 58 | 51 | 0.0 | 0.9 | 0.00 | 0.00 | 0.00 | 52 | 1019.2 |
| 20260507123603 | 58 | 95 | 0.0 | 0.9 | 0.00 | 0.00 | 0.00 | 56 | 1019.0 |
| 20260507122918 | 57 | 154 | 0.9 | 1.7 | 0.00 | 0.00 | 0.00 | 56 | 1019.1 |
| 20260507122018 | 56 | 141 | 0.9 | 2.6 | 0.00 | 0.00 | 0.00 | 57 | 1019.0 |
| 20260507120903 | 56 | 140 | 0.9 | 2.6 | 0.00 | 0.00 | 0.00 | 59 | 1018.9 |
| 20260507120003 | 56 | 134 | 0.0 | 1.7 | 0.00 | 0.00 | 0.00 | 58 | 1018.9 |
| 20260507115404 | 56 | 137 | 0.0 | 1.7 | 0.00 | 0.00 | 0.00 | 57 | 1019.1 |
| 20260507114504 | 58 | 339 | 0.0 | 1.7 | 0.00 | 0.00 | 0.00 | 56 | 1019.0 |
| 20260507113603 | 58 | 108 | 0.9 | 1.7 | 0.00 | 0.00 | 0.00 | 56 | 1019.3 |
| 20260507112918 | 55 | 61 | 0.9 | 1.7 | 0.00 | 0.00 | 0.00 | 63 | 1019.1 |
| 20260507111803 | 56 | 166 | 0.0 | 1.7 | 0.00 | 0.00 | 0.00 | 58 | 1019.2 |
| 20260507110903 | 56 | 248 | 0.0 | 2.6 | 0.00 | 0.00 | 0.00 | 56 | 1019.4 |
| 20260507110003 | 56 | 199 | 0.9 | 2.6 | 0.00 | 0.00 | 0.00 | 55 | 1019.3 |
| 20260507105404 | 57 | 167 | 0.9 | 2.6 | 0.00 | 0.00 | 0.00 | 53 | 1019.4 |
| 20260507104503 | 57 | 155 | 0.9 | 3.5 | 0.00 | 0.00 | 0.00 | 56 | 1019.3 |
| 20260507103603 | 60 | 185 | 0.9 | 3.5 | 0.00 | 0.00 | 0.00 | 53 | 1019.3 |
| 20260507102704 | 60 | 214 | 0.9 | 1.7 | 0.00 | 0.00 | 0.00 | 52 | 1019.4 |
| 20260507101803 | 58 | 187 | 0.9 | 3.5 | 0.00 | 0.00 | 0.00 | 56 | 1019.4 |
| 20260507100903 | 57 | 157 | 0.9 | 1.7 | 0.00 | 0.00 | 0.00 | 57 | 1019.4 |
| 20260507100003 | 54 | 234 | 0.0 | 1.7 | 0.00 | 0.00 | 0.00 | 66 | 1019.6 |
| 20260507095617 | 54 | 198 | 0.0 | 0.9 | 0.00 | 0.00 | 0.00 | 65 | 1019.5 |
| 20260507094503 | 54 | 178 | 0.9 | 2.6 | 0.00 | 0.00 | 0.00 | 66 | 1019.6 |
| 20260507093603 | 55 | 198 | 1.7 | 3.5 | 0.00 | 0.00 | 0.00 | 60 | 1019.5 |
| 20260507092919 | 56 | 138 | 0.9 | 3.5 | 0.00 | 0.00 | 0.00 | 63 | 1019.5 |
| 20260507092017 | 56 | 158 | 0.9 | 3.5 | 0.00 | 0.00 | 0.00 | 58 | 1019.6 |
| 20260507090903 | 53 | 293 | 0.9 | 1.7 | 0.00 | 0.00 | 0.00 | 67 | 1019.6 |
| 20260507090003 | 53 | 190 | 0.9 | 2.6 | 0.00 | 0.00 | 0.00 | 69 | 1019.6 |
| 20260507085403 | 52 | 241 | 0.9 | 2.6 | 0.00 | 0.00 | 0.00 | 72 | 1019.5 |
| 20260507084503 | 53 | 246 | 0.9 | 1.7 | 0.00 | 0.00 | 0.00 | 72 | 1019.7 |
| 20260507083603 | 53 | 220 | 0.0 | 1.7 | 0.00 | 0.00 | 0.00 | 71 | 1019.7 |
| 20260507082703 | 55 | 136 | 0.0 | 2.6 | 0.00 | 0.00 | 0.00 | 69 | 1019.4 |
| 20260507081803 | 53 | 254 | 0.9 | 1.7 | 0.00 | 0.00 | 0.00 | 74 | 1019.4 |
| 20260507080903 | 53 | 156 | 0.9 | 3.5 | 0.00 | 0.00 | 0.00 | 75 | 1019.4 |
| 20260507080003 | 52 | 169 | 0.0 | 3.5 | 0.00 | 0.00 | 0.00 | 78 | 1019.3 |
| 20260507075403 | 50 | 151 | 0.9 | 1.7 | 0.00 | 0.00 | 0.00 | 81 | 1019.4 |
| 20260507074504 | 49 | 133 | 0.9 | 2.6 | 0.00 | 0.00 | 0.00 | 83 | 1019.4 |
| 20260507073603 | 50 | 147 | 0.0 | 1.7 | 0.00 | 0.00 | 0.00 | 85 | 1019.4 |
| 20260507072703 | 49 | 146 | 0.9 | 2.6 | 0.00 | 0.00 | 0.00 | 88 | 1019.2 |
| 20260507072018 | 48 | 165 | 0.9 | 1.7 | 0.00 | 0.00 | 0.00 | 89 | 1019.3 |
| 20260507070903 | 46 | 156 | 0.9 | 0.9 | 0.00 | 0.00 | 0.00 | 94 | 1019.5 |
| 20260507070004 | 46 | 157 | 0.9 | 1.7 | 0.00 | 0.00 | 0.00 | 96 | 1019.4 |
| 20260507065618 | 45 | 165 | 0.9 | 1.7 | 0.00 | 0.00 | 0.00 | 96 | 1019.2 |
| 20260507064504 | 44 | 177 | 0.0 | 0.9 | 0.00 | 0.00 | 0.00 | 97 | 1019.3 |
| 20260507063603 | 43 | 0 | 0.0 | 0.0 | 0.00 | 0.00 | 0.00 | 97 | 1019.3 |
| 20260507062703 | 42 | 0 | 0.0 | 0.0 | 0.00 | 0.00 | 0.00 | 97 | 1019.2 |
| 20260507061804 | 42 | 184 | 0.0 | 0.9 | 0.00 | 0.00 | 0.00 | 97 | 1019.3 |
| 20260507060903 | 42 | 0 | 0.0 | 0.0 | 0.00 | 0.00 | 0.00 | 97 | 1019.4 |
| 20260507060003 | 41 | 0 | 0.0 | 0.0 | 0.00 | 0.00 | 0.00 | 97 | 1019.3 |
| 20260507055404 | 41 | 0 | 0.0 | 0.0 | 0.00 | 0.00 | 0.00 | 97 | 1019.1 |
| 20260507054503 | 40 | 0 | 0.0 | 0.0 | 0.00 | 0.00 | 0.00 | 97 | 1019.2 |
| 20260507053603 | 40 | 0 | 0.0 | 0.0 | 0.00 | 0.00 | 0.00 | 97 | 1019.1 |
| 20260507052703 | 39 | 0 | 0.0 | 0.0 | 0.00 | 0.00 | 0.00 | 96 | 1019.1 |
| 20260507051803 | 39 | 0 | 0.0 | 0.0 | 0.00 | 0.00 | 0.00 | 96 | 1019.1 |
| 20260507051116 | 38 | 0 | 0.0 | 0.0 | 0.00 | 0.00 | 0.00 | 96 | 1019.1 |
| 20260507050218 | 38 | 270 | 0.0 | 0.9 | 0.00 | 0.00 | 0.00 | 96 | 1019.1 |
| 20260507045403 | 38 | 270 | 0.0 | 0.9 | 0.00 | 0.00 | 0.00 | 96 | 1018.9 |
| 20260507044503 | 37 | 0 | 0.0 | 0.0 | 0.00 | 0.00 | 0.00 | 96 | 1018.8 |
| 20260507043604 | 37 | 0 | 0.0 | 0.0 | 0.00 | 0.00 | 0.00 | 96 | 1019.0 |
| 20260507042705 | 36 | 0 | 0.0 | 0.0 | 0.00 | 0.00 | 0.00 | 96 | 1018.8 |
| 20260507042017 | 36 | 0 | 0.0 | 0.0 | 0.00 | 0.00 | 0.00 | 96 | 1018.8 |
| 20260507040903 | 37 | 0 | 0.0 | 0.0 | 0.00 | 0.00 | 0.00 | 96 | 1018.8 |
| 20260507040003 | 37 | 0 | 0.0 | 0.0 | 0.00 | 0.00 | 0.00 | 95 | 1018.6 |
| 20260507035403 | 38 | 0 | 0.0 | 0.0 | 0.00 | 0.00 | 0.00 | 95 | 1018.6 |
| 20260507034503 | 38 | 0 | 0.0 | 0.0 | 0.00 | 0.00 | 0.00 | 95 | 1018.8 |
| 20260507033603 | 38 | 0 | 0.0 | 0.0 | 0.00 | 0.00 | 0.00 | 95 | 1018.8 |
| 20260507032704 | 39 | 0 | 0.0 | 0.0 | 0.00 | 0.00 | 0.00 | 95 | 1018.7 |
| 20260507031803 | 39 | 0 | 0.0 | 0.0 | 0.00 | 0.00 | 0.00 | 95 | 1018.7 |
| 20260507031118 | 39 | 0 | 0.0 | 0.0 | 0.00 | 0.00 | 0.00 | 95 | 1018.7 |
| 20260507030003 | 40 | 0 | 0.0 | 0.0 | 0.00 | 0.00 | 0.00 | 95 | 1018.6 |
| 20260507025403 | 40 | 0 | 0.0 | 0.0 | 0.00 | 0.00 | 0.00 | 95 | 1018.7 |
| 20260507024718 | 40 | 0 | 0.0 | 0.0 | 0.00 | 0.00 | 0.00 | 95 | 1018.6 |
| 20260507023603 | 41 | 0 | 0.0 | 0.0 | 0.00 | 0.00 | 0.00 | 95 | 1018.7 |
| 20260507022703 | 41 | 0 | 0.0 | 0.0 | 0.00 | 0.00 | 0.00 | 95 | 1018.7 |
| 20260507022018 | 41 | 260 | 0.0 | 0.9 | 0.00 | 0.00 | 0.00 | 95 | 1018.8 |
| 20260507020904 | 41 | 0 | 0.0 | 0.0 | 0.00 | 0.00 | 0.00 | 95 | 1018.6 |
| 20260507020216 | 40 | 0 | 0.0 | 0.0 | 0.00 | 0.00 | 0.00 | 95 | 1018.8 |
| 20260507015616 | 40 | 0 | 0.0 | 0.0 | 0.00 | 0.00 | 0.00 | 95 | 1018.5 |
| 20260507014503 | 39 | 0 | 0.0 | 0.0 | 0.00 | 0.00 | 0.00 | 95 | 1018.5 |
| 20260507013603 | 38 | 0 | 0.0 | 0.0 | 0.00 | 0.00 | 0.00 | 95 | 1018.6 |
| 20260507012703 | 38 | 0 | 0.0 | 0.0 | 0.00 | 0.00 | 0.00 | 95 | 1018.7 |
| 20260507011803 | 38 | 0 | 0.0 | 0.0 | 0.00 | 0.00 | 0.00 | 95 | 1018.6 |
| 20260507010003 | 39 | 0 | 0.0 | 0.0 | 0.00 | 0.00 | 0.00 | 94 | 1018.5 |
| 20260507005403 | 38 | 0 | 0.0 | 0.0 | 0.00 | 0.00 | 0.00 | 94 | 1018.6 |
| 20260507004503 | 38 | 0 | 0.0 | 0.0 | 0.00 | 0.00 | 0.00 | 94 | 1018.7 |
| 20260507003603 | 39 | 0 | 0.0 | 0.0 | 0.00 | 0.00 | 0.00 | 94 | 1018.4 |
| 20260507002704 | 39 | 0 | 0.0 | 0.0 | 0.00 | 0.00 | 0.00 | 94 | 1018.6 |
| 20260507001803 | 40 | 248 | 0.0 | 0.9 | 0.00 | 0.00 | 0.00 | 94 | 1018.6 |
| 20260507000904 | 40 | 0 | 0.0 | 0.0 | 0.00 | 0.00 | 0.00 | 93 | 1018.7 |
| 20260507000003 | 40 | 0 | 0.0 | 0.0 | 0.00 | 0.00 | 0.00 | 93 | 1018.8 |
| 20260506235403 | 41 | 231 | 0.0 | 0.9 | 0.00 | 0.00 | 0.00 | 93 | 1018.5 |